Starlink 30070

operational
NORAD ID: 56707 Int'l Des: 2023-067 Owner: SPXS Country: US Constellation: starlink
LEOCIRCULAR

Über Starlink 30070

Beschreibung wird geladen...

Live-Position

3D-Globus wird geladen...

Nächste Überflüge

Höhenverlauf

Altitude vs Time

uPlot chart will show altitude changes over time

Zweizeiliger Elementsatz

1 56707U 23067V 25305.14161890 -.00000027 00000-0 13041-4 0 9991
2 56707 43.0054 252.9064 0001270 264.7019 95.3678 15.02534851136327
Epoch: 1. Nov. 2025 • Age: 31 hours

Aktueller Status

Höhe 571.5 km
Geschwindigkeit 7.58 km/s
Subsatellitenpunkt -43.04°S, 54.95°W
Startdatum 19. Mai 2023
Alter 2.4 years
Typ internet

Technische Details

Klassifizierung Payload
Masse 730.00 kg
Trockenmasse 700.00 kg
Gesamtmasse 730.00 kg
Länge 0.30 m
Durchmesser 4.10 m
Spannweite 29.00 m
Form Box + pan
Hersteller SPXS
Bus-Typ Starlink V2M
Phasenstatus In Orbit
Besitzer/Staat SPXS/US

Große Konstellationen

Loading constellations...